This is the latest recevied weather packets stored in our database for station/object LRSV. If no packets are shown the sender has not sent any weather packets the latest 1 day(s).
| Time | Temp. | Humidity | Pressure | Rain* | Wind** | Luminosity | Snow |
|---|---|---|---|---|---|---|---|
| 1778010500 | 17.22° C | 39% | 1012 hPa | - | 4.02 m/s, 160° | - | - |
| 1778009600 | 17.22° C | 39% | 1012 hPa | - | 4.02 m/s, 160° | - | - |
| 1778008700 | 17.22° C | 39% | 1012 hPa | - | 3.58 m/s, 170° | - | - |
| 1778007800 | 17.22° C | 39% | 1012 hPa | - | 3.58 m/s, 170° | - | - |
| 1778006901 | 17.22° C | 39% | 1012 hPa | - | 4.47 m/s, 150° | - | - |
| 1778006001 | 17.22° C | 39% | 1012 hPa | - | 4.47 m/s, 150° | - | - |
| 1778005101 | 17.78° C | 40% | 1012 hPa | - | 4.02 m/s, 150° | - | - |
| 1778004200 | 17.78° C | 40% | 1012 hPa | - | 4.02 m/s, 150° | - | - |
| 1778003297 | 18.89° C | 40% | 1012 hPa | - | 4.02 m/s, 150° | - | - |
| 1778002400 | 18.89° C | 40% | 1012 hPa | - | 4.02 m/s, 150° | - | - |
| 1778001500 | 20° C | 38% | 1012 hPa | - | 4.47 m/s, 150° | - | - |
| 1778000600 | 20° C | 38% | 1012 hPa | - | 4.47 m/s, 150° | - | - |
| 1777999700 | 22.22° C | 36% | 1011 hPa | - | 3.58 m/s, 140° | - | - |
| 1777998800 | 22.22° C | 36% | 1011 hPa | - | 3.58 m/s, 140° | - | - |
| 1777997901 | 23.89° C | 25% | 1011 hPa | - | 3.58 m/s, 140° | - | - |
| 1777997001 | 23.89° C | 25% | 1011 hPa | - | 3.58 m/s, 140° | - | - |
| 1777996101 | 25° C | 26% | 1012 hPa | - | 4.02 m/s, 120° | - | - |
| 1777995200 | 25° C | 26% | 1012 hPa | - | 4.02 m/s, 120° | - | - |
| 1777994308 | 25° C | 22% | 1012 hPa | - | 4.47 m/s, 130° | - | - |
| 1777993401 | 25° C | 22% | 1012 hPa | - | 4.47 m/s, 130° | - | - |
| 1777992501 | 25° C | 21% | 1012 hPa | - | 4.02 m/s, 150° | - | - |
| 1777991600 | 25° C | 21% | 1012 hPa | - | 4.02 m/s, 150° | - | - |
| 1777990700 | 25° C | 15% | 1012 hPa | - | 3.58 m/s, 140° | - | - |
| 1777989800 | 25° C | 15% | 1012 hPa | - | 3.58 m/s, 140° | - | - |
| 1777988939 | 26.11° C | 18% | 1013 hPa | - | 4.02 m/s, 110° | - | - |
* Rain since midnight (hover to see other rain measurements)
** Current wind speed in m/s (hover to see current wind gust speed)